Flag for France Weather past 2 weeks in Rouen, France

Now
97 °F

Sunny.


Feels Like: 96 °F
Forecast: 60 / 81 °F
Wind: 15 mph from South

Location: Rouen Airport

Current Time: Jul 1, 2015 at 7:42:06 PM

Latest Report: Jul 1, 2015 at 7:00 PM


Visibility: 10 mi

Pressure: 29.89 "Hg

Humidity: 27%

Dew point: 57 °F

Location of RouenLocation

Historic Weather in Rouen — Graph

°F

Rouen temperature yesterday

Maximum temperature yesterday: 90 °F (at 4:00 PM)
Minimum temperature yesterday: 55 °F (at 4:00 AM)
Average temperature yesterday: 73 °F

Past Weeks' High & Low Weather Summary

 TemperatureHumidityPressure
High100 °F (Jul 1, 4:00 PM)100% (Jun 18, 8:30 AM)30.33 "Hg (Jun 18, 8:30 AM)
Low45 °F (Jun 23, 5:30 AM)21% (Jun 30, 4:30 PM)29.83 "Hg (Jun 22, 4:30 PM)
Average64 °F69%30.12 "Hg
* Reported Jun 16 6:00 PM — Jul 1 6:30 PM, Rouen, Weather by CustomWeather, © 2015

Note: Actual official high and low records may vary slightly from our data, if they occured in-between our weather recording intervals... More about our weather records

Advertising

Rouen weather history for previous 24 hours

 ConditionsComfort  
Time TempWeatherWind HumidityBarometerVisibility
6:30 PM
Wed, Jul 1
99 °FSunny.13 mph25%29.86 "Hg10 mi
6:00 PM97 °FPartly sunny.12 mph28%29.86 "HgN/A
5:30 PM99 °FPassing clouds.12 mph29%29.86 "HgN/A
5:00 PM99 °FClear.16 mph27%29.86 "Hg6 mi
4:30 PM100 °FSunny.15 mph25%29.86 "Hg10 mi
4:00 PM100 °FSunny.16 mph27%29.89 "Hg10 mi
3:30 PM99 °FClear.13 mph27%29.89 "Hg6 mi
3:00 PM99 °FPassing clouds.13 mph31%29.89 "HgN/A
2:30 PM99 °FPassing clouds.13 mph31%29.89 "HgN/A
2:00 PM95 °FSunny.13 mph34%29.89 "Hg10 mi
1:30 PM97 °FPassing clouds.14 mph34%29.92 "HgN/A
1:00 PM93 °FPassing clouds.8 mph39%29.92 "HgN/A
12:30 PM91 °FPassing clouds.9 mph38%29.92 "HgN/A
12:00 PM90 °FSunny.12 mph41%29.92 "Hg10 mi
11:30 AM88 °FSunny.10 mph43%29.92 "Hg10 mi
11:00 AM86 °FSunny.12 mph43%29.92 "Hg10 mi
10:30 AM84 °FSunny.10 mph45%29.92 "Hg10 mi
10:00 AM82 °FPassing clouds.10 mph48%29.92 "HgN/A
9:30 AM79 °FSunny.10 mph51%29.95 "Hg10 mi
9:00 AM77 °FSunny.10 mph51%29.92 "Hg10 mi
8:30 AM75 °FSunny.10 mph54%29.92 "Hg10 mi
8:00 AM73 °FSunny.10 mph53%29.95 "Hg10 mi
7:30 AM72 °FSunny.8 mph57%29.95 "Hg10 mi
7:00 AM68 °FSunny.7 mph60%29.95 "Hg10 mi
6:30 AM68 °FClear.5 mph60%29.95 "Hg10 mi
6:00 AM68 °FClear.7 mph56%29.95 "Hg10 mi
5:30 AM68 °FClear.9 mph56%29.95 "Hg10 mi
5:00 AM68 °FClear.8 mph56%29.95 "Hg10 mi
4:30 AM68 °FClear.9 mph56%29.95 "Hg10 mi
4:00 AM68 °FClear.7 mph56%29.95 "Hg10 mi
3:30 AM70 °FClear.9 mph53%29.95 "Hg10 mi
3:00 AM68 °FClear.8 mph56%29.95 "Hg10 mi
2:30 AM68 °FClear.9 mph53%29.95 "Hg10 mi
2:00 AM70 °FClear.9 mph50%29.95 "Hg10 mi
1:30 AM72 °FClear.10 mph47%29.95 "Hg10 mi
1:00 AM72 °FClear.12 mph44%29.98 "Hg10 mi
12:30 AM72 °FClear.12 mph44%29.98 "Hg10 mi
12:00 AM73 °FClear.12 mph41%29.98 "Hg10 mi
11:30 PM
Tue, Jun 30
73 °FClear.10 mph41%29.98 "Hg10 mi
11:00 PM72 °FSunny.9 mph44%29.98 "Hg10 mi
10:30 PM73 °FSunny.8 mph41%29.98 "Hg10 mi
10:00 PM75 °FSunny.8 mph39%29.98 "Hg10 mi
9:30 PM79 °FSunny.10 mph37%29.98 "Hg10 mi
9:00 PM82 °FSunny.9 mph32%29.98 "Hg10 mi
8:30 PM84 °FSunny.10 mph29%29.98 "Hg10 mi
8:00 PM86 °FSunny.9 mph29%29.98 "Hg10 mi
7:00 PM90 °FSunny.10 mph24%29.98 "Hg10 mi
Weather by CustomWeather, © 2015

See weather overviewHow to use our weather pages